Voltar ao catálogo

STARLINK-3881

AtivoComunicaçõesVLEO
NORAD 52472·PAYLOAD·🇺🇸 United States

Lançado May 6, 2022 de Cape Canaveral Space Force Station

Loading…

Próximas Passagens (próximas 24 horas)

TLE

AtualizadoSource: CelesTrak SupGP

Época: Sep 15, 2026, 02:13 UTC

1 52472C 22049X   26258.09284722  .00008901  00000+0  27006-3 0  2587
2 52472  53.1567 279.1243 0001100  93.9798 299.8051 15.33549254    10

Acompanhe STARLINK-3881 em tempo real com AllMySat

Download on the App Store